Regional Weather Roundup
Issued by NWS Jackson, KY

Home | Current Version | Previous Version | Text Only | Print | Product List | Glossary Off
Versions: 1 2 3 4 5 6 7 8 9 10 11 12 13 14 15 16 17 18 19 20 21 22 23 24 25 26 27 28 29 30 31 32 33 34 35 36 37 38 39 40 41 42 43 44 45 46 47 48 49 50

000
ASUS43 KJKL 211219
RWRJKL

EAST KENTUCKY HOURLY WEATHER ROUNDUP
NATIONAL WEATHER SERVICE JACKSON KY
800 AM EDT SUN SEP 21 2014

NOTE: "FAIR" INDICATES FEW OR NO CLOUDS BELOW 12,000 FEET WITH
NO SIGNIFICANT WEATHER AND/OR OBSTRUCTIONS TO VISIBILITY.

* THESE REPORTS ARE NOT UNDER NWS QUALITY CONTROL AND MAY NOT
  REPORT WEATHER SUCH AS PRECIPITATION AND FOG.

KYZ079-080-083-085-087-088-110-112-115-119-120-211300
...EASTERN KENTUCKY...

CITY           SKY/WX    TMP DP  RH WIND       PRES   REMARKS
JACKSON        CLEAR     64  61  90 VRB3      29.95R
6HR MIN TEMP:  63; 6HR MAX TEMP:  66;

LONDON         CLEAR     64  60  87 CALM      29.98R
6HR MIN TEMP:  63; 6HR MAX TEMP:  66;

SOMERSET*      MOCLDY    63  63 100 CALM      29.98R
MONTICELLO*    MOCLDY    68  65  90 SW6       29.99R
6HR MIN TEMP:  59; 6HR MAX TEMP:  68;

WILLIAMSBURG*  CLEAR     64  64 100 SW3       29.99R
MIDDLESBORO*   FOG       58  58 100 CALM      30.01R VSB<1/4
6HR MIN TEMP:  58; 6HR MAX TEMP:  59;

HARLAN APT*    CLOUDY    59  59 100 MISG      30.01R VSB<1/4
HAZARD APT*    SUNNY     66  63  88 SW6       29.96
BLACK MTN*       N/A     61  59  94 S2          N/A
PIKEVILLE APT* CLEAR     64  61  88 S5        29.96S
BIG SANDY*     SUNNY     64  62  91 S5        29.94R
6HR MIN TEMP:  64; 6HR MAX TEMP:  66;

MOREHEAD APT*  MOSUNNY   70  64  83 SW15G22   29.92R
$$

KYZ035-036-041-042-044-050-067-078-099-211300
...CENTRAL KENTUCKY...

CITY           SKY/WX    TMP DP  RH WIND       PRES   REMARKS
MT STERLING*   PTCLDY    66  64  94 SW9       29.92R
FLEMING/MASON* CLOUDY    66  64  94 SW8       29.89R
DANVILLE*      PTCLDY    64  64 100 SW8       29.94F
RICHMOND*      PTCLDY    68  63  83 SW10      29.93S
LEXINGTON      MOCLDY    70  65  84 SW9       29.90R
6HR MIN TEMP:  68; 6HR MAX TEMP:  71;

FRANKFORT      CLOUDY    70  65  84 W5        29.88R
6HR MIN TEMP:  67; 6HR MAX TEMP:  70;

$$

KYZ091>093-OHZ055-061-077-WVZ005-015-034-035-042-211300
...SOUTHERN OHIO/WEST VIRGINIA...

CITY           SKY/WX    TMP DP  RH WIND       PRES   REMARKS
COVINGTON      CLOUDY    72  66  81 W12       29.85R
COLUMBUS       CLOUDY    72  64  78 SW12      29.78S
DAYTON         MOCLDY    71  67  87 W15       29.81R
WILMINGTON     CLOUDY    68  64  87 SW8       29.82R
HUNTINGTON     CLEAR     64  62  93 S9        29.88S
CHARLESTON     PTCLDY    65  63  93 S5        29.90S
PINEVILLE*     CLOUDY    59  59 100 MISG      30.04R FOG
BECKLEY        PTCLDY    59  54  83 S3        30.01R
BLUEFIELD      PTCLDY    62  54  74 W7        30.04R
$$

VAZ002-007-008-TNZ017-027-036-066-071-211300
...SOUTHWEST VIRGINIA/EAST TENNESSEE...

CITY           SKY/WX    TMP DP  RH WIND       PRES   REMARKS
WISE*          MOCLDY    59  59 100 W5        30.04S
JONESVILLE*    FOG       57  57 100 CALM      30.04R VSB<1/4
ABINGDON*      CLOUDY    58  57  99 CALM      30.04S FOG
BRISTOL        MOCLDY    57  54  89 CALM      30.02S
KNOXVILLE      PTCLDY    64  61  90 SW6       30.01R
OAK RIDGE      MOCLDY    65  62  90 W3        30.03R
CROSSVILLE     CLEAR     64  58  80 SW5       30.05R
NASHVILLE      MOCLDY    68  64  87 CALM      29.99R
$$

...KEY TO REMARKS...
VSB - VISIBILITY IN MILES
WCI - WIND CHILL INDEX
HX  - HEAT INDEX

$$



USA.gov is the U.S. government's official web portal to all federal, state and local government web resources and services.